Location: Colle Santa Colomba
(42.0333°N, 12.5667°E)
Time: 22:12:26
(UTC+00:00)

COSMOS 2428 - Pass Details

Date: 25 October 2021
Orbit: 844 x 857 km, 70.9° (Epoch: 05 December)

Event Time Altitude Azimuth Distance (km) Brightness Sun altitude
Rises 19:11:40 0° 215° (SW) 3,390 6.1 -33.7°
Reaches altitude 10° 19:14:09 10° 220° (SW) 2,458 5.3 -34.1°
Enters shadow 19:16:51 28° 231° (SW) 1,529 4.2 -34.6°
